This demonstration page uses our WeatherBlox Daily Observations layout. Learn more.

Left ArrowRight Arrow

38.88101, -77.10428

Hourly Observations for November 13, 2018

Temp ( °F °C ) Dew Point ( °F °C ) Humidity (%) Winds ( mph kmh ) Pressure ( in mb ) Visibility ( mi km ) Precip ( " mm )
12:52 am 00:52 Cloudy with Light Rain 45 7.2 42 5.6 90 90 NE 10 17 30.12 1020 5 8.0467 0.08 2.032
1:52 am 01:52 Cloudy with Light Rain 45 7.2 42 5.6 90 90 NNE 9 15 30.08 1019 5 8.0467 0.02 0.508
2:52 am 02:52 Cloudy with Light Rain 45 7.2 43 6.1 93 93 N 10 17 30.03 1017 4 6.43736 0.1 2.54
3:52 am 03:52 Cloudy with Light Rain 46 7.8 44 6.7 93 93 N 9 15 29.99 1016 4 6.43736 0.09 2.286
4:52 am 04:52 Cloudy with Light Rain 45 7.2 42 5.6 90 90 NNW 12 19 29.98 1015 5 8.0467 0.05 1.27
5:28 am 05:28 Cloudy with Light Rain 45 7.2 42 5.6 90 90 NW 14 22 29.97 1015 4 6.43736 0.01 0.254
5:52 am 05:52 Cloudy with Light Rain 44 6.7 41 5 89 89 NW 14 22 29.97 1015 6 9.65604 0.01 0.254
5:53 am 05:53 Cloudy with Light Rain 44 6.7 41 5 89 89 NW 14 22 29.97 1015 6 9.65604 0.01 0.254
6:13 am 06:13 Cloudy with Light Rain 44 6.7 41 5 89 89 NNW 14 22 29.97 1015 4 6.43736 0.01 0.254
6:37 am 06:37 Cloudy with Light Rain 44 6.7 41 5 89 89 NNW 15 24 29.97 1015 7 11.26538 0.01 0.254
6:52 am 06:52 Cloudy 44 6.7 40 4.4 85 85 NNW 14 22 29.97 1015 10 16.0934 0.01 0.254
7:06 am 07:06 Cloudy 44 6.7 41 5 89 89 NNW 16 26 29.97 1015 10 16.0934 0 0
7:49 am 07:49 Cloudy 45 7 41 5 87 87 NNW 12 19 29.97 1015 10 16.0934 0 0
7:52 am 07:52 Cloudy 45 7.2 41 5 86 86 NNW 14 22 29.98 1015 10 16.0934 0 0
8:04 am 08:04 Cloudy 46 7.8 41 5 83 83 NNW 12 19 29.97 1015 10 16.0934 0 0
8:48 am 08:48 Cloudy 46 8 43 6 87 87 NW 15 24 29.97 1015 10 16.0934 0 0
8:52 am 08:52 Cloudy 47 8.3 42 5.6 83 83 NW 14 22 29.97 1015 10 16.0934 0 0
9:12 am 09:12 Cloudy 47 8.3 42 5.6 83 83 NW 14 22 30 1016 10 16.0934 0 0
9:52 am 09:52 Cloudy 47 8.3 42 5.6 83 83 WNW 13 20 30.01 1016 10 16.0934 0 0
10:49 am 10:49 Cloudy 48 9 43 6 82 82 NW 13 20 30.03 1017 10 16.0934 0 0
10:52 am 10:52 Cloudy 48 8.9 42 5.6 80 80 NW 15 24 30.03 1017 10 16.0934 0 0
11:32 am 11:32 Cloudy 48 8.9 41 5 77 77 NW 12 19 30.03 1017 10 16.0934 0 0
11:52 am 11:52 Cloudy 49 9.4 41 5 74 74 NW 13 20 30.04 1017 10 16.0934 0 0
12:17 pm 12:17 Cloudy 49 9.4 40 4.4 71 71 NW 15 24 30.03 1017 10 16.0934 0 0
12:52 pm 12:52 Cloudy 50 10 40 4.4 68 68 NW 9 15 30.02 1017 10 16.0934 0 0
1:52 pm 13:52 Cloudy 50 10 39 3.9 66 66 NW 16 26 30.04 1017 10 16.0934 0 0
2:52 pm 14:52 Cloudy 50 10 38 3.3 63 63 NW 10 17 30.08 1019 10 16.0934 0 0
3:52 pm 15:52 Cloudy with Light Rain 48 8.9 39 3.9 71 71 NW 10 17 30.1 1019 10 16.0934 0 0.0254
4:52 pm 16:52 Cloudy 48 8.9 36 2.2 63 63 NNW 12 19 30.1 1019 10 16.0934 0 0.0254
5:52 pm 17:52 Cloudy 48 8.9 33 0.6 56 56 NNW 13 20 30.14 1021 10 16.0934 0 0
6:52 pm 18:52 Cloudy 47 8.3 33 0.6 59 59 NNW 8 13 30.17 1022 10 16.0934 0 0
7:52 pm 19:52 Cloudy 47 8.3 34 1.1 61 61 NNW 8 13 30.18 1022 10 16.0934 0 0
8:52 pm 20:52 Cloudy 47 8.3 34 1.1 61 61 WNW 7 11 30.22 1023 10 16.0934 0 0
9:52 pm 21:52 Cloudy 47 8.3 34 1.1 61 61 W 7 11 30.24 1024 10 16.0934 0 0
10:52 pm 22:52 Cloudy 46 7.8 34 1.1 63 63 W 7 11 30.25 1024 10 16.0934 0 0
11:52 pm 23:52 Cloudy 45 7.2 34 1.1 66 66 NNW 10 17 30.27 1025 10 16.0934 0 0

Powered by AerisWeather